Saint Bonnet de Bellac- Haute Vienne - France
Donnes mto: samedi, 29/09/2012
Date Horaire Temp. E. Hum. E. P.atmo. Pluie Vent Direction Direction Ensoleilleme Solaire P. de rose Temp au vent Rafales
29/09/2012 00:00 9,4 C 82 % 1017,1 hPa 0,0 mm 0,0 km/h (0 Bft) E-NE 67 0 min 0 W/m 6,5 C 9,4 C 0,0 km/h (0 Bft)
29/09/2012 00:10 9,3 C 82 % 1017,2 hPa 0,0 mm 0,0 km/h (0 Bft) E-NE 67 0 min 0 W/m 6,4 C 9,3 C 0,0 km/h (0 Bft)
29/09/2012 00:20 9,1 C 83 % 1017,2 hPa 0,0 mm 0,0 km/h (0 Bft) E-NE 67 0 min 0 W/m 6,4 C 9,1 C 0,0 km/h (0 Bft)
29/09/2012 00:30 8,8 C 83 % 1017,1 hPa 0,0 mm 0,0 km/h (0 Bft) E-NE 67 0 min 0 W/m 6,1 C 8,8 C 0,0 km/h (0 Bft)
29/09/2012 00:40 8,7 C 84 % 1016,9 hPa 0,0 mm 0,0 km/h (0 Bft) E-NE 67 0 min 0 W/m 6,2 C 8,7 C 0,0 km/h (0 Bft)
29/09/2012 00:50 8,5 C 84 % 1016,9 hPa 0,0 mm 0,0 km/h (0 Bft) E-NE 67 0 min 0 W/m 6,0 C 8,5 C 0,0 km/h (0 Bft)
29/09/2012 01:00 8,3 C 84 % 1016,9 hPa 0,0 mm 0,0 km/h (0 Bft) E-NE 67 0 min 0 W/m 5,8 C 8,3 C 0,0 km/h (0 Bft)
29/09/2012 01:10 8,3 C 85 % 1016,9 hPa 0,0 mm 0,0 km/h (0 Bft) SE 135 0 min 0 W/m 5,9 C 8,3 C 0,0 km/h (0 Bft)
29/09/2012 01:20 8,5 C 86 % 1016,9 hPa 0,0 mm 0,0 km/h (0 Bft) E-SE 112 0 min 0 W/m 6,3 C 8,5 C 0,0 km/h (0 Bft)
29/09/2012 01:30 8,6 C 86 % 1016,9 hPa 0,0 mm 0,0 km/h (0 Bft) E 90 0 min 0 W/m 6,4 C 8,6 C 3,2 km/h (1 Bft)
29/09/2012 01:40 8,9 C 87 % 1017,0 hPa 0,0 mm 0,0 km/h (0 Bft) SE 135 0 min 0 W/m 6,9 C 8,9 C 0,0 km/h (0 Bft)
29/09/2012 01:50 8,9 C 87 % 1017,0 hPa 0,0 mm 0,0 km/h (0 Bft) E 90 0 min 0 W/m 6,9 C 8,9 C 0,0 km/h (0 Bft)
29/09/2012 02:00 8,8 C 87 % 1017,0 hPa 0,0 mm 0,0 km/h (0 Bft) E 90 0 min 0 W/m 6,8 C 8,8 C 0,0 km/h (0 Bft)
29/09/2012 02:10 8,6 C 87 % 1016,9 hPa 0,0 mm 0,0 km/h (0 Bft) E-SE 112 0 min 0 W/m 6,6 C 8,6 C 0,0 km/h (0 Bft)
29/09/2012 02:20 8,6 C 87 % 1017,0 hPa 0,0 mm 0,0 km/h (0 Bft) E-SE 112 0 min 0 W/m 6,6 C 8,6 C 0,0 km/h (0 Bft)
29/09/2012 02:30 8,4 C 87 % 1017,2 hPa 0,0 mm 0,0 km/h (0 Bft) N-NE 22 0 min 0 W/m 6,4 C 8,4 C 0,0 km/h (0 Bft)
29/09/2012 02:40 8,3 C 87 % 1017,1 hPa 0,0 mm 0,0 km/h (0 Bft) N-NE 22 0 min 0 W/m 6,3 C 8,3 C 0,0 km/h (0 Bft)
29/09/2012 02:50 8,1 C 87 % 1017,2 hPa 0,0 mm 0,0 km/h (0 Bft) N-NE 22 0 min 0 W/m 6,1 C 8,1 C 0,0 km/h (0 Bft)
29/09/2012 03:02 7,8 C 87 % 1017,1 hPa 0,0 mm 0,0 km/h (0 Bft) N-NE 22 0 min 0 W/m 5,8 C 7,8 C 0,0 km/h (0 Bft)
29/09/2012 03:10 7,5 C 87 % 1017,2 hPa 0,0 mm 0,0 km/h (0 Bft) N-NE 22 0 min 0 W/m 5,5 C 7,5 C 0,0 km/h (0 Bft)
29/09/2012 03:20 7,3 C 88 % 1017,2 hPa 0,0 mm 0,0 km/h (0 Bft) E-SE 112 0 min 0 W/m 5,4 C 7,3 C 0,0 km/h (0 Bft)
29/09/2012 03:30 7,1 C 88 % 1017,1 hPa 0,0 mm 0,0 km/h (0 Bft) E-SE 112 0 min 0 W/m 5,2 C 7,1 C 0,0 km/h (0 Bft)
29/09/2012 03:40 7,1 C 88 % 1017,1 hPa 0,0 mm 0,0 km/h (0 Bft) E-SE 112 0 min 0 W/m 5,2 C 7,1 C 0,0 km/h (0 Bft)
29/09/2012 03:50 7,1 C 88 % 1017,1 hPa 0,0 mm 0,0 km/h (0 Bft) NE 45 0 min 0 W/m 5,2 C 7,1 C 0,0 km/h (0 Bft)
29/09/2012 04:00 7,1 C 88 % 1016,9 hPa 0,0 mm 0,0 km/h (0 Bft) NE 45 0 min 0 W/m 5,2 C 7,1 C 0,0 km/h (0 Bft)
29/09/2012 04:10 7,1 C 88 % 1016,9 hPa 0,0 mm 0,0 km/h (0 Bft) NE 45 0 min 0 W/m 5,2 C 7,1 C 0,0 km/h (0 Bft)
29/09/2012 04:20 6,9 C 88 % 1016,9 hPa 0,0 mm 0,0 km/h (0 Bft) NE 45 0 min 0 W/m 5,1 C 6,9 C 0,0 km/h (0 Bft)
29/09/2012 04:30 6,9 C 88 % 1016,8 hPa 0,0 mm 0,0 km/h (0 Bft) NE 45 0 min 0 W/m 5,1 C 6,9 C 0,0 km/h (0 Bft)
29/09/2012 04:40 6,9 C 88 % 1016,8 hPa 0,0 mm 0,0 km/h (0 Bft) NE 45 0 min 0 W/m 5,1 C 6,9 C 0,0 km/h (0 Bft)
29/09/2012 04:50 6,8 C 89 % 1016,7 hPa 0,0 mm 0,0 km/h (0 Bft) NE 45 0 min 0 W/m 5,1 C 6,8 C 0,0 km/h (0 Bft)
29/09/2012 05:00 6,6 C 89 % 1016,9 hPa 0,0 mm 0,0 km/h (0 Bft) NE 45 0 min 0 W/m 4,9 C 6,6 C 0,0 km/h (0 Bft)
29/09/2012 05:10 6,6 C 89 % 1016,7 hPa 0,0 mm 0,0 km/h (0 Bft) NE 45 0 min 0 W/m 4,9 C 6,6 C 0,0 km/h (0 Bft)
29/09/2012 05:20 6,5 C 89 % 1016,8 hPa 0,0 mm 0,0 km/h (0 Bft) NE 45 0 min 0 W/m 4,8 C 6,5 C 0,0 km/h (0 Bft)
29/09/2012 05:30 6,4 C 89 % 1016,8 hPa 0,0 mm 0,0 km/h (0 Bft) E-NE 67 0 min 0 W/m 4,7 C 6,4 C 0,0 km/h (0 Bft)
29/09/2012 05:40 6,5 C 89 % 1016,8 hPa 0,0 mm 0,0 km/h (0 Bft) E-NE 67 0 min 0 W/m 4,8 C 6,5 C 0,0 km/h (0 Bft)
29/09/2012 05:50 6,5 C 89 % 1016,8 hPa 0,0 mm 0,0 km/h (0 Bft) E 90 0 min 0 W/m 4,8 C 6,5 C 0,0 km/h (0 Bft)
29/09/2012 06:00 6,6 C 89 % 1016,8 hPa 0,0 mm 0,0 km/h (0 Bft) E-SE 112 0 min 0 W/m 4,9 C 6,6 C 0,0 km/h (0 Bft)
29/09/2012 06:10 6,6 C 89 % 1016,8 hPa 0,0 mm 0,0 km/h (0 Bft) E-SE 112 0 min 0 W/m 4,9 C 6,6 C 0,0 km/h (0 Bft)
29/09/2012 06:20 6,6 C 89 % 1016,8 hPa 0,0 mm 0,0 km/h (0 Bft) SE 135 0 min 0 W/m 4,9 C 6,6 C 0,0 km/h (0 Bft)
29/09/2012 06:30 6,6 C 89 % 1016,9 hPa 0,0 mm 0,0 km/h (0 Bft) SE 135 0 min 0 W/m 4,9 C 6,6 C 0,0 km/h (0 Bft)
29/09/2012 06:40 6,8 C 90 % 1017,0 hPa 0,0 mm 0,0 km/h (0 Bft) SE 135 0 min 0 W/m 5,3 C 6,8 C 0,0 km/h (0 Bft)
29/09/2012 06:50 6,7 C 90 % 1017,1 hPa 0,0 mm 0,0 km/h (0 Bft) SE 135 0 min 0 W/m 5,2 C 6,7 C 0,0 km/h (0 Bft)
29/09/2012 07:00 6,7 C 90 % 1017,2 hPa 0,0 mm 0,0 km/h (0 Bft) SE 135 0 min 0 W/m 5,2 C 6,7 C 0,0 km/h (0 Bft)
29/09/2012 07:10 6,6 C 90 % 1017,1 hPa 0,0 mm 0,0 km/h (0 Bft) SE 135 0 min 0 W/m 5,1 C 6,6 C 0,0 km/h (0 Bft)
29/09/2012 07:20 6,5 C 90 % 1017,1 hPa 0,0 mm 0,0 km/h (0 Bft) SE 135 0 min 0 W/m 5,0 C 6,5 C 0,0 km/h (0 Bft)
29/09/2012 07:30 6,3 C 90 % 1017,2 hPa 0,0 mm 0,0 km/h (0 Bft) SE 135 0 min 0 W/m 4,8 C 6,3 C 0,0 km/h (0 Bft)
29/09/2012 07:40 6,3 C 90 % 1017,1 hPa 0,0 mm 0,0 km/h (0 Bft) SE 135 0 min 0 W/m 4,8 C 6,3 C 0,0 km/h (0 Bft)
29/09/2012 07:50 6,3 C 90 % 1017,1 hPa 0,0 mm 0,0 km/h (0 Bft) SE 135 0 min 0 W/m 4,8 C 6,3 C 0,0 km/h (0 Bft)
29/09/2012 08:00 6,3 C 90 % 1017,2 hPa 0,0 mm 0,0 km/h (0 Bft) SE 135 0 min 0 W/m 4,8 C 6,3 C 0,0 km/h (0 Bft)
29/09/2012 08:10 6,3 C 91 % 1017,2 hPa 0,0 mm 0,0 km/h (0 Bft) N 360 0 min 0 W/m 4,9 C 6,3 C 0,0 km/h (0 Bft)
29/09/2012 08:20 6,5 C 91 % 1017,3 hPa 0,0 mm 0,0 km/h (0 Bft) N-NE 22 0 min 0 W/m 5,1 C 6,5 C 0,0 km/h (0 Bft)
29/09/2012 08:30 6,8 C 91 % 1017,3 hPa 0,0 mm 0,0 km/h (0 Bft) N 360 0 min 0 W/m 5,4 C 6,8 C 1,8 km/h (1 Bft)
29/09/2012 08:40 6,9 C 91 % 1017,5 hPa 0,0 mm 0,0 km/h (0 Bft) N 360 0 min 0 W/m 5,5 C 6,9 C 0,0 km/h (0 Bft)
29/09/2012 08:50 6,9 C 91 % 1017,5 hPa 0,0 mm 0,0 km/h (0 Bft) N-NE 22 0 min 0 W/m 5,5 C 6,9 C 0,0 km/h (0 Bft)
29/09/2012 09:00 7,1 C 91 % 1017,6 hPa 0,0 mm 0,0 km/h (0 Bft) NE 45 0 min 0 W/m 5,7 C 7,1 C 0,0 km/h (0 Bft)
29/09/2012 09:10 7,3 C 91 % 1017,6 hPa 0,0 mm 0,0 km/h (0 Bft) E-SE 112 0 min 0 W/m 5,9 C 7,3 C 0,0 km/h (0 Bft)
29/09/2012 09:20 7,4 C 92 % 1017,7 hPa 0,0 mm 0,0 km/h (0 Bft) E-SE 112 0 min 0 W/m 6,2 C 7,4 C 0,0 km/h (0 Bft)
29/09/2012 09:30 7,8 C 92 % 1017,9 hPa 0,0 mm 0,0 km/h (0 Bft) E-SE 112 0 min 0 W/m 6,6 C 7,8 C 0,0 km/h (0 Bft)
29/09/2012 09:40 8,2 C 92 % 1017,9 hPa 0,0 mm 1,1 km/h (1 Bft) SE 135 0 min 0 W/m 7,0 C 8,2 C 3,2 km/h (1 Bft)
29/09/2012 09:50 8,8 C 92 % 1018,1 hPa 0,0 mm 0,0 km/h (0 Bft) S-SE 157 0 min 0 W/m 7,6 C 8,8 C 0,0 km/h (0 Bft)
29/09/2012 10:00 9,3 C 92 % 1018,1 hPa 0,0 mm 0,0 km/h (0 Bft) E-NE 67 0 min 0 W/m 8,1 C 9,3 C 0,0 km/h (0 Bft)
29/09/2012 10:10 9,8 C 92 % 1018,1 hPa 0,0 mm 0,0 km/h (0 Bft) SE 135 0 min 0 W/m 8,6 C 9,8 C 0,0 km/h (0 Bft)
29/09/2012 10:20 10,0 C 92 % 1018,2 hPa 0,0 mm 0,0 km/h (0 Bft) SE 135 0 min 0 W/m 8,8 C 10,0 C 0,0 km/h (0 Bft)
29/09/2012 10:30 11,1 C 91 % 1018,3 hPa 0,0 mm 0,0 km/h (0 Bft) S-SE 157 0 min 0 W/m 9,7 C 11,1 C 0,0 km/h (0 Bft)
29/09/2012 10:40 12,5 C 89 % 1018,3 hPa 0,0 mm 0,0 km/h (0 Bft) E-SE 112 0 min 0 W/m 10,7 C 12,5 C 0,0 km/h (0 Bft)
29/09/2012 10:50 13,6 C 87 % 1018,4 hPa 0,0 mm 1,4 km/h (1 Bft) NE 45 0 min 0 W/m 11,5 C 13,6 C 4,0 km/h (1 Bft)
29/09/2012 11:00 13,8 C 85 % 1018,5 hPa 0,0 mm 0,4 km/h (0 Bft) N-NO 337 0 min 0 W/m 11,3 C 13,8 C 0,4 km/h (0 Bft)
29/09/2012 11:10 14,6 C 84 % 1018,5 hPa 0,0 mm 0,0 km/h (0 Bft) NE 45 0 min 0 W/m 11,9 C 14,6 C 0,0 km/h (0 Bft)
29/09/2012 11:20 15,4 C 81 % 1018,5 hPa 0,0 mm 0,0 km/h (0 Bft) N-NE 22 0 min 0 W/m 12,2 C 15,4 C 0,0 km/h (0 Bft)
29/09/2012 11:30 15,8 C 79 % 1018,5 hPa 0,0 mm 1,8 km/h (1 Bft) N 360 0 min 0 W/m 12,2 C 15,8 C 6,1 km/h (2 Bft)
29/09/2012 11:40 16,2 C 77 % 1018,5 hPa 0,0 mm 1,8 km/h (1 Bft) E-NE 67 0 min 0 W/m 12,2 C 16,2 C 6,1 km/h (2 Bft)
29/09/2012 11:50 16,6 C 74 % 1018,6 hPa 0,0 mm 4,3 km/h (1 Bft) NE 45 0 min 0 W/m 11,9 C 16,6 C 6,8 km/h (2 Bft)
29/09/2012 12:00 17,2 C 72 % 1018,6 hPa 0,0 mm 3,2 km/h (1 Bft) NE 45 0 min 0 W/m 12,1 C 17,2 C 4,0 km/h (1 Bft)
29/09/2012 12:10 18,1 C 71 % 1018,5 hPa 0,0 mm 1,1 km/h (1 Bft) N-NE 22 0 min 0 W/m 12,8 C 18,1 C 3,6 km/h (1 Bft)
29/09/2012 12:20 18,6 C 69 % 1018,6 hPa 0,0 mm 2,5 km/h (1 Bft) N 360 0 min 0 W/m 12,8 C 18,6 C 4,7 km/h (1 Bft)
29/09/2012 12:30 19,2 C 66 % 1018,4 hPa 0,0 mm 6,5 km/h (2 Bft) N 360 0 min 0 W/m 12,7 C 19,2 C 8,3 km/h (2 Bft)
29/09/2012 12:40 19,6 C 65 % 1018,6 hPa 0,0 mm 1,1 km/h (1 Bft) N-NE 22 0 min 0 W/m 12,8 C 19,6 C 4,0 km/h (1 Bft)
29/09/2012 12:50 19,9 C 61 % 1018,5 hPa 0,0 mm 3,6 km/h (1 Bft) N 360 0 min 0 W/m 12,2 C 19,9 C 6,8 km/h (2 Bft)
29/09/2012 13:00 20,3 C 61 % 1018,5 hPa 0,0 mm 5,4 km/h (2 Bft) NE 45 0 min 0 W/m 12,5 C 20,3 C 8,3 km/h (2 Bft)
29/09/2012 13:10 20,4 C 58 % 1018,5 hPa 0,0 mm 0,4 km/h (0 Bft) NO 315 0 min 0 W/m 11,9 C 20,4 C 3,2 km/h (1 Bft)
29/09/2012 13:20 20,6 C 57 % 1018,5 hPa 0,0 mm 5,8 km/h (2 Bft) N 360 0 min 0 W/m 11,8 C 20,6 C 9,4 km/h (2 Bft)
29/09/2012 13:30 20,6 C 56 % 1018,4 hPa 0,0 mm 5,4 km/h (2 Bft) N-NE 22 0 min 0 W/m 11,5 C 20,6 C 10,4 km/h (2 Bft)
29/09/2012 13:40 20,4 C 56 % 1018,4 hPa 0,0 mm 7,6 km/h (2 Bft) NO 315 0 min 0 W/m 11,3 C 20,4 C 14,0 km/h (3 Bft)
29/09/2012 13:50 20,1 C 56 % 1018,3 hPa 0,0 mm 7,6 km/h (2 Bft) N 360 0 min 0 W/m 11,0 C 20,1 C 7,6 km/h (2 Bft)
29/09/2012 14:00 19,9 C 57 % 1018,2 hPa 0,0 mm 4,0 km/h (1 Bft) N-NO 337 0 min 0 W/m 11,1 C 19,9 C 6,8 km/h (2 Bft)
29/09/2012 14:10 19,7 C 57 % 1018,2 hPa 0,0 mm 6,1 km/h (2 Bft) N-NE 22 0 min 0 W/m 10,9 C 19,7 C 8,6 km/h (2 Bft)
29/09/2012 14:20 19,5 C 57 % 1018,1 hPa 0,0 mm 6,1 km/h (2 Bft) N 360 0 min 0 W/m 10,8 C 19,5 C 10,4 km/h (2 Bft)
29/09/2012 14:30 19,4 C 58 % 1018,1 hPa 0,0 mm 4,7 km/h (1 Bft) NE 45 0 min 0 W/m 10,9 C 19,4 C 7,2 km/h (2 Bft)
29/09/2012 14:40 19,4 C 58 % 1018,0 hPa 0,0 mm 6,5 km/h (2 Bft) N-NE 22 0 min 0 W/m 10,9 C 19,4 C 7,9 km/h (2 Bft)
29/09/2012 14:50 19,4 C 57 % 1017,9 hPa 0,0 mm 8,6 km/h (2 Bft) N-NO 337 0 min 0 W/m 10,7 C 19,4 C 18,4 km/h (3 Bft)
29/09/2012 15:00 19,2 C 58 % 1017,7 hPa 0,0 mm 2,9 km/h (1 Bft) NE 45 0 min 0 W/m 10,7 C 19,2 C 4,3 km/h (1 Bft)
29/09/2012 15:10 18,9 C 57 % 1017,6 hPa 0,0 mm 7,6 km/h (2 Bft) N 360 0 min 0 W/m 10,2 C 18,9 C 13,0 km/h (3 Bft)
29/09/2012 15:20 18,6 C 59 % 1017,5 hPa 0,0 mm 6,1 km/h (2 Bft) N-NE 22 0 min 0 W/m 10,4 C 18,6 C 6,1 km/h (2 Bft)
29/09/2012 15:30 18,6 C 60 % 1017,3 hPa 0,0 mm 2,2 km/h (1 Bft) NE 45 0 min 0 W/m 10,7 C 18,6 C 6,8 km/h (2 Bft)
29/09/2012 15:40 18,6 C 59 % 1017,3 hPa 0,0 mm 4,7 km/h (1 Bft) N-NE 22 0 min 0 W/m 10,4 C 18,6 C 10,8 km/h (2 Bft)
29/09/2012 15:50 18,4 C 61 % 1017,5 hPa 0,0 mm 3,6 km/h (1 Bft) N-NE 22 0 min 0 W/m 10,7 C 18,4 C 4,3 km/h (1 Bft)
29/09/2012 16:00 18,6 C 59 % 1017,5 hPa 0,0 mm 5,8 km/h (2 Bft) E-NE 67 0 min 0 W/m 10,4 C 18,6 C 9,0 km/h (2 Bft)
29/09/2012 16:10 18,7 C 60 % 1017,7 hPa 0,0 mm 2,9 km/h (1 Bft) N 360 0 min 0 W/m 10,8 C 18,7 C 8,6 km/h (2 Bft)
29/09/2012 16:20 18,6 C 59 % 1017,6 hPa 0,0 mm 5,0 km/h (1 Bft) N-NO 337 0 min 0 W/m 10,4 C 18,6 C 9,0 km/h (2 Bft)
29/09/2012 16:30 18,3 C 60 % 1017,5 hPa 0,0 mm 4,0 km/h (1 Bft) N 360 0 min 0 W/m 10,4 C 18,3 C 4,0 km/h (1 Bft)
29/09/2012 16:40 17,9 C 61 % 1017,3 hPa 0,0 mm 3,2 km/h (1 Bft) N-NE 22 0 min 0 W/m 10,3 C 17,9 C 7,2 km/h (2 Bft)
29/09/2012 16:50 17,9 C 62 % 1017,2 hPa 0,0 mm 7,9 km/h (2 Bft) E-NE 67 0 min 0 W/m 10,5 C 17,9 C 8,3 km/h (2 Bft)
29/09/2012 17:00 18,3 C 62 % 1017,2 hPa 0,0 mm 6,8 km/h (2 Bft) N-NE 22 0 min 0 W/m 10,9 C 18,3 C 15,5 km/h (3 Bft)
29/09/2012 17:10 18,4 C 61 % 1017,0 hPa 0,0 mm 4,7 km/h (1 Bft) N 360 0 min 0 W/m 10,7 C 18,4 C 12,6 km/h (3 Bft)
29/09/2012 17:20 18,2 C 59 % 1016,9 hPa 0,0 mm 10,1 km/h (2 Bft) N-NO 337 0 min 0 W/m 10,1 C 18,2 C 10,1 km/h (2 Bft)
29/09/2012 17:30 17,8 C 59 % 1016,9 hPa 0,0 mm 4,7 km/h (1 Bft) NE 45 0 min 0 W/m 9,7 C 17,8 C 7,9 km/h (2 Bft)
29/09/2012 17:40 17,4 C 60 % 1016,8 hPa 0,0 mm 4,0 km/h (1 Bft) N 360 0 min 0 W/m 9,6 C 17,4 C 9,0 km/h (2 Bft)
29/09/2012 17:50 17,1 C 62 % 1016,8 hPa 0,0 mm 2,5 km/h (1 Bft) N 360 0 min 0 W/m 9,8 C 17,1 C 4,0 km/h (1 Bft)
29/09/2012 18:00 17,3 C 59 % 1016,8 hPa 0,0 mm 8,6 km/h (2 Bft) E-NE 67 0 min 0 W/m 9,2 C 17,3 C 14,8 km/h (3 Bft)
29/09/2012 18:10 17,3 C 60 % 1016,9 hPa 0,0 mm 5,8 km/h (2 Bft) NE 45 0 min 0 W/m 9,5 C 17,3 C 12,6 km/h (3 Bft)
29/09/2012 18:20 17,2 C 61 % 1017,1 hPa 0,0 mm 5,0 km/h (1 Bft) N-NO 337 0 min 0 W/m 9,6 C 17,2 C 6,5 km/h (2 Bft)
29/09/2012 18:30 17,1 C 61 % 1017,1 hPa 0,0 mm 6,8 km/h (2 Bft) N-NE 22 0 min 0 W/m 9,5 C 17,1 C 12,6 km/h (3 Bft)
29/09/2012 18:40 16,8 C 60 % 1017,3 hPa 0,0 mm 5,0 km/h (1 Bft) N-NE 22 0 min 0 W/m 9,0 C 16,8 C 12,6 km/h (3 Bft)
29/09/2012 18:50 16,5 C 61 % 1017,3 hPa 0,0 mm 7,9 km/h (2 Bft) NE 45 0 min 0 W/m 9,0 C 16,5 C 7,9 km/h (2 Bft)
29/09/2012 19:00 16,1 C 63 % 1017,5 hPa 0,0 mm 6,1 km/h (2 Bft) N-NE 22 0 min 0 W/m 9,1 C 16,1 C 11,5 km/h (2 Bft)
29/09/2012 19:10 15,8 C 63 % 1017,4 hPa 0,0 mm 4,3 km/h (1 Bft) E-NE 67 0 min 0 W/m 8,8 C 15,8 C 4,3 km/h (1 Bft)
29/09/2012 19:20 15,4 C 64 % 1017,6 hPa 0,0 mm 2,2 km/h (1 Bft) NE 45 0 min 0 W/m 8,6 C 15,4 C 6,1 km/h (2 Bft)
29/09/2012 19:30 15,3 C 64 % 1017,6 hPa 0,0 mm 5,4 km/h (2 Bft) E-NE 67 0 min 0 W/m 8,5 C 15,3 C 7,2 km/h (2 Bft)
29/09/2012 19:40 15,1 C 65 % 1017,8 hPa 0,0 mm 2,5 km/h (1 Bft) N-NE 22 0 min 0 W/m 8,6 C 15,1 C 2,5 km/h (1 Bft)
29/09/2012 19:50 14,9 C 66 % 1017,9 hPa 0,0 mm 1,1 km/h (1 Bft) N-NE 22 0 min 0 W/m 8,6 C 14,9 C 4,3 km/h (1 Bft)
29/09/2012 20:00 14,7 C 66 % 1018,0 hPa 0,0 mm 3,2 km/h (1 Bft) NE 45 0 min 0 W/m 8,4 C 14,7 C 3,6 km/h (1 Bft)
29/09/2012 20:10 14,5 C 66 % 1018,2 hPa 0,0 mm 0,4 km/h (0 Bft) N-NE 22 0 min 0 W/m 8,2 C 14,5 C 3,6 km/h (1 Bft)
29/09/2012 20:20 14,3 C 67 % 1018,3 hPa 0,0 mm 0,0 km/h (0 Bft) NE 45 0 min 0 W/m 8,3 C 14,3 C 0,0 km/h (0 Bft)
29/09/2012 20:30 14,1 C 68 % 1018,4 hPa 0,0 mm 0,0 km/h (0 Bft) NE 45 0 min 0 W/m 8,3 C 14,1 C 0,0 km/h (0 Bft)
29/09/2012 20:40 13,9 C 68 % 1018,5 hPa 0,0 mm 2,5 km/h (1 Bft) N-NE 22 0 min 0 W/m 8,1 C 13,9 C 3,6 km/h (1 Bft)
29/09/2012 20:50 13,8 C 69 % 1018,7 hPa 0,0 mm 2,5 km/h (1 Bft) N-NE 22 0 min 0 W/m 8,2 C 13,8 C 2,5 km/h (1 Bft)
29/09/2012 21:00 13,7 C 69 % 1018,8 hPa 0,0 mm 0,7 km/h (0 Bft) N-NE 22 0 min 0 W/m 8,1 C 13,7 C 3,2 km/h (1 Bft)
29/09/2012 21:10 13,6 C 69 % 1019,0 hPa 0,0 mm 4,0 km/h (1 Bft) N-NE 22 0 min 0 W/m 8,0 C 13,6 C 4,3 km/h (1 Bft)
29/09/2012 21:20 13,5 C 69 % 1019,0 hPa 0,0 mm 2,2 km/h (1 Bft) N 360 0 min 0 W/m 7,9 C 13,5 C 3,2 km/h (1 Bft)
29/09/2012 21:30 13,4 C 70 % 1019,1 hPa 0,0 mm 2,5 km/h (1 Bft) N-NE 22 0 min 0 W/m 8,0 C 13,4 C 7,9 km/h (2 Bft)
29/09/2012 21:40 13,3 C 71 % 1019,3 hPa 0,0 mm 5,8 km/h (2 Bft) NE 45 0 min 0 W/m 8,2 C 13,3 C 10,4 km/h (2 Bft)
29/09/2012 21:50 13,2 C 71 % 1019,3 hPa 0,0 mm 1,1 km/h (1 Bft) N-NE 22 0 min 0 W/m 8,1 C 13,2 C 6,1 km/h (2 Bft)
29/09/2012 22:00 13,1 C 71 % 1019,2 hPa 0,0 mm 6,5 km/h (2 Bft) E-NE 67 0 min 0 W/m 8,0 C 13,1 C 8,6 km/h (2 Bft)
29/09/2012 22:10 12,9 C 71 % 1019,3 hPa 0,0 mm 4,7 km/h (1 Bft) N-NE 22 0 min 0 W/m 7,8 C 12,9 C 6,5 km/h (2 Bft)
29/09/2012 22:20 12,8 C 72 % 1019,4 hPa 0,0 mm 2,9 km/h (1 Bft) NE 45 0 min 0 W/m 7,9 C 12,8 C 3,6 km/h (1 Bft)
29/09/2012 22:30 12,6 C 72 % 1019,3 hPa 0,0 mm 2,5 km/h (1 Bft) N 360 0 min 0 W/m 7,7 C 12,6 C 4,7 km/h (1 Bft)
29/09/2012 22:40 12,3 C 73 % 1019,4 hPa 0,0 mm 3,6 km/h (1 Bft) N-NE 22 0 min 0 W/m 7,6 C 12,3 C 6,5 km/h (2 Bft)
29/09/2012 22:50 12,1 C 73 % 1019,4 hPa 0,0 mm 4,7 km/h (1 Bft) N-NE 22 0 min 0 W/m 7,4 C 12,1 C 9,0 km/h (2 Bft)
29/09/2012 23:00 11,9 C 74 % 1019,4 hPa 0,0 mm 4,3 km/h (1 Bft) NE 45 0 min 0 W/m 7,4 C 11,9 C 6,1 km/h (2 Bft)
29/09/2012 23:10 11,8 C 75 % 1019,5 hPa 0,0 mm 1,4 km/h (1 Bft) N-NO 337 0 min 0 W/m 7,5 C 11,8 C 1,4 km/h (1 Bft)
29/09/2012 23:20 11,8 C 76 % 1019,5 hPa 0,0 mm 5,4 km/h (2 Bft) N-NE 22 0 min 0 W/m 7,7 C 11,8 C 8,6 km/h (2 Bft)
29/09/2012 23:30 11,7 C 76 % 1019,5 hPa 0,0 mm 7,2 km/h (2 Bft) N-NE 22 0 min 0 W/m 7,6 C 11,7 C 12,2 km/h (2 Bft)
29/09/2012 23:40 11,6 C 76 % 1019,4 hPa 0,0 mm 4,0 km/h (1 Bft) NE 45 0 min 0 W/m 7,5 C 11,6 C 10,8 km/h (2 Bft)
29/09/2012 23:50 11,4 C 77 % 1019,5 hPa 0,0 mm 6,1 km/h (2 Bft) N-NO 337 0 min 0 W/m 7,5 C 11,4 C 15,1 km/h (3 Bft)
_ Min-Heure 08:10 13:50 05:10 - 20:30 - - - - 05:30 08:10 20:30
Minimum _ 6,3 C 56 % 1016,7 hPa - 0,0 km/h (0 Bft) - - - - 4,7 C 6,3 C 0,0 km/h (0 Bft)
_ Max-Heure 13:30 10:20 23:50 23:50 17:20 - - 23:50 23:50 12:40 13:30 14:50
Maximum _ 20,6 C 92 % 1019,5 hPa 0,0 mm 10,1 km/h
N-NO (2 Bft)
- - 0 min 0 W/m 12,8 C 20,6 C 18,4 km/h
N-NO (3 Bft)
Moyenne _ 12,5 C 76 % 1017,7 hPa #0,0 mm 2,3 km/h (1 Bft) N-NE - #0 min. 0 W/m 8,1 C 12,5 C 4,0 km/h (1 Bft)
Saint Bonnet de Bellac- Haute Vienne - France